When you browse on this site, cookies collect data to enhance your experience and personalize the content and advertising you see.
Visit our Privacy Policy to learn more. By continuing to use the site, you agree to this use of cookies and data.
  • In Spain
  • List of Countries
  • For 7 days
  • Water Temperature
  • Weather Map
  • Weather Widgets
  • user-avatar
    Login

    Hourly Weather Ondjiwa

    Today, 24 August, Saturday

    Time Temperature Precipitation Wind Pressure Humidity
    00:00 +16°C° 0 mm 3 mps 670 mmHg 21%
    01:00 +14°C° 0 mm 3 mps 670 mmHg 22%
    02:00 +13°C° 0 mm 3 mps 670 mmHg 23%
    03:00 +13°C° 0 mm 3 mps 670 mmHg 25%
    04:00 +12°C° 0 mm 3 mps 669 mmHg 26%
    05:00 +12°C° 0 mm 3 mps 670 mmHg 27%
    06:00 +12°C° 0 mm 3 mps 671 mmHg 27%
    07:00 +12°C° 0 mm 3 mps 671 mmHg 27%
    08:00 +17°C° 0 mm 4 mps 672 mmHg 22%
    09:00 +22°C° 0 mm 5 mps 673 mmHg 16%
    10:00 +27°C° 0 mm 6 mps 674 mmHg 10%
    11:00 +29°C° 0 mm 6 mps 673 mmHg 9%
    12:00 +30°C° 0 mm 5 mps 673 mmHg 8%
    13:00 +32°C° 0 mm 5 mps 672 mmHg 7%
    14:00 +32°C° 0 mm 4 mps 671 mmHg 7%
    15:00 +33°C° 0 mm 4 mps 671 mmHg 6%
    16:00 +33°C° 0 mm 4 mps 670 mmHg 6%
    17:00 +28°C° 0 mm 3 mps 670 mmHg 8%
    18:00 +25°C° 0 mm 3 mps 669 mmHg 9%
    19:00 +21°C° 0 mm 3 mps 669 mmHg 11%
    20:00 +20°C° 0 mm 3 mps 669 mmHg 12%
    21:00 +18°C° 0 mm 3 mps 669 mmHg 13%
    22:00 +17°C° 0 mm 3 mps 669 mmHg 14%
    23:00 +16°C° 0 mm 3 mps 669 mmHg 15%

    Tomorrow, 25 August, Sunday

    Time Temperature Precipitation Wind Pressure Humidity
    00:00 +16°C° 0 mm 3 mps 669 mmHg 16%
    01:00 +14°C° 0 mm 3 mps 669 mmHg 16%
    02:00 +13°C° 0 mm 3 mps 669 mmHg 18%
    03:00 +13°C° 0 mm 3 mps 669 mmHg 19%
    04:00 +12°C° 0 mm 3 mps 668 mmHg 20%
    05:00 +12°C° 0 mm 3 mps 669 mmHg 21%
    06:00 +12°C° 0 mm 3 mps 670 mmHg 21%
    07:00 +12°C° 0 mm 3 mps 670 mmHg 21%
    08:00 +18°C° 0 mm 4 mps 671 mmHg 17%
    09:00 +22°C° 0 mm 5 mps 672 mmHg 13%
    10:00 +28°C° 0 mm 6 mps 672 mmHg 8%
    11:00 +29°C° 0 mm 6 mps 672 mmHg 7%
    12:00 +32°C° 0 mm 5 mps 671 mmHg 6%
    13:00 +33°C° 0 mm 5 mps 670 mmHg 6%
    14:00 +33°C° 0 mm 4 mps 670 mmHg 5%
    15:00 +33°C° 0 mm 4 mps 669 mmHg 5%
    16:00 +33°C° 0 mm 4 mps 669 mmHg 5%
    17:00 +29°C° 0 mm 3 mps 669 mmHg 7%
    18:00 +25°C° 0 mm 3 mps 668 mmHg 8%
    19:00 +21°C° 0 mm 2 mps 668 mmHg 10%
    20:00 +20°C° 0 mm 2 mps 668 mmHg 11%
    21:00 +19°C° 0 mm 2 mps 668 mmHg 12%
    22:00 +17°C° 0 mm 2 mps 668 mmHg 13%
    23:00 +17°C° 0 mm 2 mps 668 mmHg 13%

    Day after tomorrow, 26 August, Monday

    Time Temperature Precipitation Wind Pressure Humidity
    00:00 +16°C° 0 mm 2 mps 668 mmHg 14%
    01:00 +16°C° 0 mm 2 mps 668 mmHg 14%
    02:00 +15°C° 0 mm 2 mps 667 mmHg 15%
    03:00 +14°C° 0 mm 2 mps 667 mmHg 15%
    04:00 +13°C° 0 mm 2 mps 667 mmHg 16%
    05:00 +13°C° 0 mm 2 mps 668 mmHg 16%
    06:00 +13°C° 0 mm 1 mps 669 mmHg 17%
    07:00 +13°C° 0 mm 1 mps 669 mmHg 17%
    08:00 +19°C° 0 mm 1 mps 670 mmHg 14%
    09:00 +23°C° 0 mm 2 mps 671 mmHg 11%
    10:00 +27°C° 0 mm 3 mps 672 mmHg 8%
    11:00 +30°C° 0 mm 2 mps 671 mmHg 7%
    12:00 +32°C° 0 mm 2 mps 671 mmHg 6%
    13:00 +35°C° 0 mm 1 mps 670 mmHg 5%
    14:00 +34°C° 0 mm 1 mps 670 mmHg 5%
    15:00 +35°C° 0 mm 2 mps 669 mmHg 5%
    16:00 +34°C° 0 mm 2 mps 668 mmHg 5%
    17:00 +30°C° 0 mm 2 mps 668 mmHg 6%
    18:00 +26°C° 0 mm 3 mps 668 mmHg 8%
    19:00 +22°C° 0 mm 3 mps 668 mmHg 9%
    20:00 +21°C° 0 mm 3 mps 668 mmHg 10%
    21:00 +21°C° 0 mm 3 mps 668 mmHg 10%
    22:00 +20°C° 0 mm 3 mps 668 mmHg 10%
    23:00 +19°C° 0 mm 2 mps 668 mmHg 11%

    27 August, Tuesday

    Time Temperature Precipitation Wind Pressure Humidity
    00:00 +19°C° 0 mm 2 mps 668 mmHg 11%
    01:00 +18°C° 0 mm 2 mps 668 mmHg 11%
    02:00 +18°C° 0 mm 1 mps 668 mmHg 13%
    03:00 +15°C° 0 mm 1 mps 668 mmHg 14%
    04:00 +13°C° 0 mm 0 mps 667 mmHg 16%
    05:00 +13°C° 0 mm 0 mps 668 mmHg 16%
    06:00 +14°C° 0 mm 0 mps 669 mmHg 16%
    07:00 +14°C° 0 mm 0 mps 669 mmHg 17%
    08:00 +21°C° 0 mm 1 mps 670 mmHg 13%
    09:00 +25°C° 0 mm 1 mps 671 mmHg 10%
    10:00 +30°C° 0 mm 2 mps 672 mmHg 7%
    11:00 +32°C° 0 mm 1 mps 671 mmHg 6%
    12:00 +34°C° 0 mm 1 mps 671 mmHg 5%
    13:00 +36°C° 0 mm 1 mps 670 mmHg 5%
    14:00 +35°C° 0 mm 1 mps 670 mmHg 5%
    15:00 +35°C° 0 mm 1 mps 669 mmHg 5%
    16:00 +35°C° 0 mm 1 mps 668 mmHg 6%
    17:00 +31°C° 0 mm 1 mps 668 mmHg 7%
    18:00 +28°C° 0 mm 2 mps 668 mmHg 9%
    19:00 +25°C° 0 mm 2 mps 667 mmHg 10%
    20:00 +24°C° 0 mm 2 mps 668 mmHg 10%
    21:00 +23°C° 0 mm 2 mps 668 mmHg 11%
    22:00 +22°C° 0 mm 3 mps 668 mmHg 11%
    23:00 +21°C° 0 mm 3 mps 668 mmHg 12%

    28 August, Wednesday

    Time Temperature Precipitation Wind Pressure Humidity
    00:00 +21°C° 0 mm 3 mps 668 mmHg 12%
    01:00 +20°C° 0 mm 3 mps 668 mmHg 13%
    02:00 +18°C° 0 mm 3 mps 667 mmHg 15%
    03:00 +17°C° 0 mm 2 mps 667 mmHg 18%
    04:00 +15°C° 0 mm 2 mps 667 mmHg 20%
    05:00 +15°C° 0 mm 1 mps 667 mmHg 21%
    06:00 +16°C° 0 mm 1 mps 668 mmHg 22%
    07:00 +16°C° 0 mm 1 mps 669 mmHg 23%
    08:00 +21°C° 0 mm 1 mps 669 mmHg 18%
    09:00 +25°C° 0 mm 2 mps 670 mmHg 14%
    10:00 +30°C° 0 mm 2 mps 671 mmHg 9%
    11:00 +32°C° 0 mm 2 mps 670 mmHg 8%
    12:00 +35°C° 0 mm 2 mps 670 mmHg 6%
    13:00 +37°C° 0 mm 1 mps 669 mmHg 5%
    14:00 +36°C° 0 mm 1 mps 669 mmHg 6%
    15:00 +36°C° 0 mm 1 mps 668 mmHg 6%
    16:00 +36°C° 0 mm 2 mps 667 mmHg 7%
    17:00 +32°C° 0 mm 2 mps 667 mmHg 8%
    18:00 +29°C° 0 mm 2 mps 667 mmHg 10%
    19:00 +26°C° 0 mm 2 mps 666 mmHg 11%
    20:00 +25°C° 0 mm 2 mps 667 mmHg 11%
    21:00 +25°C° 0 mm 2 mps 667 mmHg 11%
    22:00 +24°C° 0 mm 2 mps 667 mmHg 11%
    23:00 +22°C° 0 mm 3 mps 667 mmHg 14%

    29 August, Thursday

    Time Temperature Precipitation Wind Pressure Humidity
    00:00 +21°C° 0 mm 4 mps 667 mmHg 16%
    01:00 +19°C° 0 mm 5 mps 667 mmHg 18%
    02:00 +18°C° 0 mm 4 mps 666 mmHg 22%
    03:00 +16°C° 0 mm 3 mps 666 mmHg 26%
    04:00 +14°C° 0 mm 1 mps 666 mmHg 30%
    05:00 +15°C° 0 mm 1 mps 666 mmHg 29%
    06:00 +15°C° 0 mm 1 mps 667 mmHg 29%
    07:00 +15°C° 0 mm 1 mps 667 mmHg 28%
    08:00 +20°C° 0 mm 1 mps 668 mmHg 22%
    09:00 +24°C° 0 mm 2 mps 669 mmHg 16%
    10:00 +28°C° 0 mm 2 mps 670 mmHg 10%
    11:00 +30°C° 0 mm 2 mps 669 mmHg 9%
    12:00 +32°C° 0 mm 2 mps 669 mmHg 7%
    13:00 +35°C° 0 mm 2 mps 668 mmHg 6%
    14:00 +35°C° 0 mm 2 mps 667 mmHg 6%
    15:00 +35°C° 0 mm 2 mps 667 mmHg 6%
    16:00 +35°C° 0 mm 2 mps 666 mmHg 6%
    17:00 +31°C° 0 mm 2 mps 666 mmHg 8%
    18:00 +28°C° 0 mm 2 mps 666 mmHg 10%
    19:00 +25°C° 0 mm 2 mps 665 mmHg 11%
    20:00 +24°C° 0 mm 3 mps 666 mmHg 11%
    21:00 +24°C° 0 mm 3 mps 666 mmHg 12%
    22:00 +22°C° 0 mm 3 mps 667 mmHg 12%
    23:00 +20°C° 0 mm 3 mps 666 mmHg 15%
    Show more